カタログに戻る

FENGYUN 2C DEB

LostMEO
NORAD 40000·DEBRIS·🇨🇳 China

打ち上げ Oct 19, 2004 から Xichang Satellite Launch Center

Loading…

次のパス (今後24時間)

TLE

古いSource: Space-Track

元期: Mar 21, 2026, 10:29 UTC

1 40000U 04042D   26080.43694546  .00000072  00000-0  00000-0 0  9990
2 40000  12.6402  20.3576 0198751  71.1279 290.9952  1.00297433 11706

AllMySatでFENGYUN 2C DEBをリアルタイム追跡

Download on the App Store